WESTFORD NEEDLES, 2431

Orbit data source: Space-Track

WESTFORD NEEDLES, 2431 is space debris in LEO originally from a launch on Thu, 09 May 1963 UTC launched from the Air Force Western Test Range (AFWTR). Debris objects in space refer to the collection of defunct objects orbiting the Earth. Examples of debris include non-operational satellites, rocket bodies, and fragments generated from explosions, collisions, or faulty payload assembly.

Loading next visibility...
Identifier
2431, 1963-014AC
Orbit
LEO
Country
Flag of USUS
Related business
Manufacturer
Unknown
Mission
Spacecraft
Bus & Motor
Unknown
Mass
Unknown
Launch date (UTC)
1963-05-09 (62 years ago)
Launch vehicle
Unknown
Launch site
Air Force Western Test Range (AFWTR)
Object type
Payload
Rocket body
Debris
Shape & HBR
Unknown
Radar Cross Section
Medium (>0.1 m² and <1 m²)

Expand to show TLE details & history
Last TLE update: 4 weeks ago

TLE from 4 weeks ago
0 WESTFORD NEEDLES
1 02431U 63014AC  25215.95953705  .00000111  00000-0  45908-1 0  9992
2 02431  87.5065 220.7903 0391480 279.7200  75.9662  8.68619377342164
Epoch: 2025-08-03T23:01Z
TLE epoch observation values (Epoch: 2025-08-03T23:01:44.001Z)
Latitude
0.00004°
Longitude
-77.41691°
Altitude
3,540.287 km
Speed
6.366 km/s
True Right ascension
14h 43m 09s
True Declination
0° 00' 00"
Sunlit
Object was in daylight at epoch
Visualization orbit readout
Latitude
Unknown
Longitude
Unknown
Altitude
Unknown
Speed
Unknown
Apparent Right ascension
Unknown
Apparent Declination
Unknown
Sunlit
N/A
Visualization observer readout
Local Sidereal Time
04:30:43
Azimuth
Unknown
Elevation
Unknown
Doppler factor
Unknown
Orbital elements
Apogee altitude
4,007.452 km
Perigee altitude
3,224.936 km
Semi-major axis
9,994.331 km
Eccentricity
0.03915
Inclination
87.5065°
RAAN
220.7903°
Arg. of periapsis
279.72°
True anomaly
80.36624°
Mean anomaly
75.9662°
Eccentric anomaly
78.16151°
Mean motion
2.17226 °/min
Orbital period
165.73 mins
BSTAR
0.045908
Loading maneuver chart data...
Computing Atmospheric mass density...

Documentation

Showing up to 5 results
|